Hof,

8:21 AM CET on December 03, 2016 (GMT +0100)
Hof Plauen

Weather History for EDQM - November, 2012

Change the Weather History Date:

Friday, November 16, 2012

  Actual Average Record
Temperature  
Mean Temperature 30 °F -  
Max Temperature 32 °F 37 °F 57 °F (2006)
Min Temperature 27 °F 31 °F 19 °F (1999)
Degree Days  
Heating Degree Days 36    
Moisture  
Dew Point 27 °F    
Average Humidity 91    
Maximum Humidity 100    
Minimum Humidity 80    
Precipitation  
Precipitation 0.00 in - - ()
Sea Level Pressure  
Sea Level Pressure 30.10 in    
Wind  
Wind Speed 7 mph ()    
Max Wind Speed 12 mph    
Max Gust Speed -    
Visibility 3.1 miles    
Events      
Averages and records for this station are not official NWS values.
T = Trace of Precipitation, MM = Missing Value Source: Averaged Metar Reports

Daily Weather History Graph

Daily Weather History Graph

Search for Another Location

Airport or City:

Trip Planner

Search our weather history database for the weather conditions in past years. The results will help you decide how hot, cold, wet, or windy it might be!

Date:

Astronomy

Nov. 16, 2012 Rise Set
Actual Time 7:28 AM CET 4:25 PM CET
Civil Twilight 6:52 AM CET 5:01 PM CET
Nautical Twilight 6:12 AM CET 5:41 PM CET
Astronomical Twilight 5:34 AM CET 6:19 PM CET
Moon 10:13 AM CET (11/16) 7:00 PM CET (11/16)
Length of Visible Light 10h 09m
Length of Day
8h 57m
Waxing Crescent, 9% of the Moon is Illuminated
Nov 16
Waxing Crescent
Nov 20
First Quarter
Nov 28
Full
Dec 6
Last Quarter
Dec 13
New

Hourly Weather History & Observations

Time (CET) Temp. Windchill Dew Point Humidity Pressure Visibility Wind Dir Wind Speed Gust Speed Precip Events Conditions
12:00 AM 29 °F - 28 °F 96% 30.23 in 1 mi South 6.7 mph - -   Mist
12:20 AM 28.4 °F 21.2 °F 26.6 °F 93% 30.12 in 1.5 mi South 6.9 mph - N/A   Overcast
12:41 AM 28.4 °F 22.2 °F 26.6 °F 93% 30.12 in 1.9 mi SSW 5.8 mph - N/A   Overcast
1:00 AM 29 °F - 28 °F 95% 30.24 in 1 mi South 4.5 mph - -   Mist
1:20 AM 28.4 °F 21.2 °F 26.6 °F 93% 30.12 in 1.9 mi South 6.9 mph - N/A   Overcast
1:50 AM 28.4 °F 21.2 °F 26.6 °F 93% 30.12 in - South 6.9 mph - N/A   Overcast
2:00 AM 28 °F - 27 °F 95% 30.23 in 2 mi SSW 6.7 mph - -   Mist
2:20 AM 28.4 °F 19.7 °F 24.8 °F 86% 30.12 in - SSW 9.2 mph - N/A   Overcast
2:43 AM 28.4 °F 22.2 °F 26.6 °F 93% 30.12 in 1.8 mi SSW 5.8 mph - N/A   Overcast
2:50 AM 28.4 °F 21.2 °F 26.6 °F 93% 30.12 in 1.9 mi SSW 6.9 mph - N/A   Overcast
3:00 AM 28 °F - 27 °F 95% 30.23 in 1 mi South 4.5 mph - -   Mist
3:20 AM 28.4 °F 21.2 °F 26.6 °F 93% 30.12 in 1.7 mi South 6.9 mph - N/A   Overcast
3:43 AM 28.4 °F 21.2 °F 26.6 °F 93% 30.09 in 1.8 mi South 6.9 mph - N/A   Overcast
3:48 AM 28.4 °F 21.2 °F 26.6 °F 93% 30.09 in 1.9 mi SSE 6.9 mph - N/A   Overcast
4:20 AM 28.4 °F 20.4 °F 24.8 °F 86% 30.09 in 2.2 mi South 8.1 mph - N/A   Overcast
4:50 AM 28.4 °F 21.2 °F 24.8 °F 86% 30.09 in - South 6.9 mph - N/A   Overcast
5:00 AM 28 °F - 27 °F 95% 30.20 in 1 mi South 6.7 mph - -   Mist
5:07 AM 28.4 °F 20.4 °F 24.8 °F 86% 30.09 in 1.8 mi SSE 8.1 mph - N/A   Overcast
5:20 AM 28.4 °F 19.7 °F 24.8 °F 86% 30.09 in 1.7 mi SSE 9.2 mph - N/A   Overcast
5:33 AM 28.4 °F 21.2 °F 24.8 °F 86% 30.09 in 1.9 mi South 6.9 mph - N/A   Overcast
5:42 AM 28.4 °F 21.2 °F 24.8 °F 86% 30.09 in - SSW 6.9 mph - N/A   Overcast
6:00 AM 28 °F - 27 °F 95% 30.20 in 2 mi South 6.7 mph - -   Mist
6:20 AM 28.4 °F 20.4 °F 24.8 °F 86% 30.09 in - South 8.1 mph - N/A   Overcast
6:33 AM 28.4 °F 21.2 °F 26.6 °F 93% 30.09 in 1.8 mi SSE 6.9 mph - N/A   Overcast
6:50 AM 28.4 °F 21.2 °F 26.6 °F 93% 30.09 in 1.5 mi SSE 6.9 mph - N/A   Overcast
7:00 AM 28 °F - 28 °F 97% 30.20 in 1 mi SSE 4.5 mph - -   Mist
7:20 AM 28.4 °F 22.2 °F 26.6 °F 93% 30.09 in 1.0 mi SSE 5.8 mph - N/A   Overcast
7:26 AM 28.4 °F 22.2 °F 26.6 °F 93% 30.09 in 0.9 mi SSE 5.8 mph - N/A   Overcast
7:50 AM 28.4 °F 22.2 °F 26.6 °F 93% 30.09 in 0.8 mi SSE 5.8 mph - N/A   Overcast
8:00 AM 28 °F - 28 °F 100% 30.20 in 1 mi SSE 4.5 mph - -   Mist
8:05 AM 28.4 °F 22.2 °F 26.6 °F 93% 30.09 in 0.9 mi SSE 5.8 mph - N/A   Overcast
8:20 AM 28.4 °F 22.2 °F 26.6 °F 93% 30.09 in 1.2 mi SSE 5.8 mph - N/A   Overcast
8:50 AM 30.2 °F 24.3 °F 28.4 °F 93% 30.09 in 1.6 mi SSE 5.8 mph - N/A   Overcast
9:00 AM 30 °F - 30 °F 98% 30.20 in 1 mi SSE 4.5 mph - -   Mist
9:20 AM 30.2 °F 23.4 °F 28.4 °F 93% 30.09 in 1.7 mi SSE 6.9 mph - N/A   Overcast
9:22 AM 30.2 °F 24.3 °F 28.4 °F 93% 30.09 in 1.9 mi South 5.8 mph - N/A   Overcast
9:39 AM 30.2 °F 23.4 °F 28.4 °F 93% 30.09 in - South 6.9 mph - N/A   Overcast
9:50 AM 32.0 °F 25.6 °F 28.4 °F 87% 30.09 in - South 6.9 mph - N/A   Overcast
10:20 AM 32.0 °F 23.0 °F 28.4 °F 87% 30.09 in 4.3 mi South 11.5 mph - N/A   Overcast
10:50 AM 32.0 °F 24.2 °F 28.4 °F 87% 30.09 in 5.0 mi South 9.2 mph - N/A   Overcast
11:00 AM 31 °F - 30 °F 93% 30.19 in 6 mi South 8.9 mph - -   Overcast
11:20 AM 30.2 °F 21.9 °F 28.4 °F 93% 30.09 in 5.0 mi South 9.2 mph - N/A   Overcast
12:00 PM 31 °F - 29 °F 92% 30.19 in 6 mi South 6.7 mph - -   Overcast
12:20 PM 30.2 °F 21.9 °F 28.4 °F 93% 30.09 in 6.2 mi SSW 9.2 mph - N/A   Overcast
12:50 PM 32.0 °F 24.8 °F 28.4 °F 87% 30.06 in 6.2 mi SSW 8.1 mph - N/A   Overcast
1:20 PM 32.0 °F 25.6 °F 28.4 °F 87% 30.06 in 5.6 mi SSW 6.9 mph - N/A   Overcast
1:50 PM 32.0 °F 24.8 °F 26.6 °F 80% 30.06 in 6.2 mi SSW 8.1 mph - N/A   Overcast
2:00 PM 31 °F - 29 °F 91% 30.16 in 6 mi SW 6.7 mph - -   Overcast
2:20 PM 32.0 °F 25.6 °F 28.4 °F 87% 30.06 in 6.2 mi SSW 6.9 mph - N/A   Overcast
2:50 PM 32.0 °F 24.8 °F 28.4 °F 87% 30.06 in 6.2 mi SSW 8.1 mph - N/A   Overcast
3:00 PM 32 °F - 29 °F 85% 30.15 in 6 mi South 6.7 mph - -   Overcast
3:21 PM 32.0 °F 26.4 °F 28.4 °F 87% 30.06 in 5.0 mi South 5.8 mph - N/A   Overcast
3:50 PM 32.0 °F 24.8 °F 28.4 °F 87% 30.06 in 5.0 mi SSE 8.1 mph - N/A   Overcast
4:20 PM 30.2 °F 22.6 °F 28.4 °F 93% 30.04 in 3.7 mi SSE 8.1 mph - N/A   Overcast
4:50 PM 30.2 °F 22.6 °F 28.4 °F 93% 30.04 in 3.7 mi SSE 8.1 mph - N/A   Overcast
5:00 PM 31 °F - 29 °F 92% 30.14 in 4 mi South 8.9 mph - -   Mist
5:20 PM 30.2 °F 22.6 °F 28.4 °F 93% 30.04 in 3.7 mi SSE 8.1 mph - N/A   Overcast
5:50 PM 30.2 °F 23.4 °F 28.4 °F 93% 30.04 in 3.1 mi South 6.9 mph - N/A   Overcast
6:00 PM 31 °F - 30 °F 94% 30.14 in 3 mi South 6.7 mph - -   Mist
6:20 PM 30.2 °F 21.9 °F 28.4 °F 93% 30.04 in 4.3 mi South 9.2 mph - N/A   Overcast
6:50 PM 30.2 °F 22.6 °F 28.4 °F 93% 30.04 in 4.3 mi South 8.1 mph - N/A   Overcast
7:00 PM 31 °F - 29 °F 92% 30.14 in 4 mi South 6.7 mph - -   Mist
7:20 PM 30.2 °F 22.6 °F 28.4 °F 93% 30.04 in 3.7 mi South 8.1 mph - N/A   Overcast
7:50 PM 30.2 °F 23.4 °F 28.4 °F 93% 30.04 in 3.7 mi South 6.9 mph - N/A   Overcast
8:00 PM 31 °F - 29 °F 92% 30.14 in 3 mi South 6.7 mph - -   Mist
8:20 PM 30.2 °F 22.6 °F 26.6 °F 86% 30.04 in 4.3 mi SSW 8.1 mph - N/A   Overcast
8:50 PM 30.2 °F 23.4 °F 26.6 °F 86% 30.04 in 4.3 mi South 6.9 mph - N/A   Overcast
9:00 PM 30 °F - 29 °F 95% 30.14 in 3 mi South 6.7 mph - -   Mist
9:20 PM 30.2 °F 21.9 °F 26.6 °F 86% 30.04 in 4.3 mi South 9.2 mph - N/A   Overcast
9:50 PM 30.2 °F 20.8 °F 26.6 °F 86% 30.04 in 3.7 mi South 11.5 mph - N/A   Overcast
10:20 PM 30.2 °F 21.9 °F 26.6 °F 86% 30.04 in 4.3 mi South 9.2 mph - N/A   Overcast
10:50 PM 30.2 °F 22.6 °F 26.6 °F 86% 30.04 in 3.7 mi South 8.1 mph - N/A   Overcast
11:00 PM 30 °F - 29 °F 95% 30.12 in 3 mi South 6.7 mph - -   Mist
11:20 PM 30.2 °F 21.9 °F 26.6 °F 86% 30.04 in 3.7 mi South 9.2 mph - N/A   Overcast
11:50 PM 30.2 °F 21.9 °F 26.6 °F 86% 30.01 in 3.7 mi South 9.2 mph - N/A   Overcast